RH
2 2 2 2 2 2 2 2 2 2 3 3 2 2 2 2 2 2 2 1 1 1 1 1 2 3 3 4 3 3 2 2 2 1 2 3 3 7 9 12 11 9 9 17 42 63 65 71 74 75 76 73 74 72 59 56 60 57 55 56 54 52 50 48 43 34 32 35 40 45 39 30 22 14 15 15 8 4 3 4 5 5 6 7 9 8 8 10
2 2 2 2 2 2 2 1 2 2 2 2 2 3 2 2 2 2 2 2 1 1 1 1 1 2 3 4 4 3 3 2 2 2 1 2 2 5 9 12 11 8 9 21 44 59 64 69 73 74 74 71 71 70 62 56 56 52 49 52 52 52 50 48 47 39 34 35 40 47 46 41 31 18 14 14 10 6 3 4 5 5 6 8 10 10 10 13
2 2 2 2 2 2 2 2 2 2 1 2 2 2 2 2 3 2 2 2 2 1 1 1 1 1 2 3 4 3 3 2 2 2 1 2 2 3 5 9 11 7 10 26 44 56 62 64 68 71 71 68 66 68 64 57 53 49 44 47 52 52 50 49 50 45 36 34 36 41 47 50 44 27 16 14 11 7 4 4 5 5 7 8 10 11 12 15
3 3 3 2 2 2 2 2 2 2 2 2 1 2 2 2 2 2 2 2 2 2 1 2 1 1 1 2 4 4 3 3 2 2 2 1 2 2 2 7 10 7 10 27 44 53 56 60 66 69 66 62 63 64 62 58 53 48 44 46 52 53 55 52 48 45 38 34 34 38 45 53 53 35 18 13 11 8 5 4 5 5 7 8 10 11 13 16
3 3 3 3 3 2 2 2 2 2 2 2 1 1 1 2 2 2 2 2 2 2 2 2 2 1 1 2 3 4 3 3 3 2 2 2 2 2 2 6 11 8 10 23 40 48 53 59 64 64 61 58 60 59 57 57 52 47 44 46 52 54 57 52 43 40 34 30 28 31 38 45 46 30 14 9 8 7 5 4 5 5 6 7 9 11 13 16
3 3 3 3 3 3 3 2 2 2 2 2 2 2 2 1 1 2 2 2 2 2 2 2 2 2 1 1 2 3 3 3 3 3 2 2 2 2 2 4 8 9 9 18 33 44 51 56 57 59 60 56 57 56 54 54 50 45 43 44 50 51 53 50 40 33 28 24 21 21 24 28 28 18 10 8 7 7 5 5 5 5 6 7 9 9 11 14
2 2 2 3 3 3 3 3 3 2 2 2 2 2 2 2 1 1 2 2 2 2 2 2 2 2 2 1 1 2 3 3 3 3 3 2 2 2 2 2 4 7 9 15 27 41 48 52 56 58 58 56 55 54 53 52 47 43 40 43 49 51 52 51 40 30 24 20 18 18 18 19 20 14 10 9 7 6 6 5 5 5 6 7 8 9 10 13
2 2 2 2 2 3 3 3 3 3 3 2 2 2 2 2 1 1 1 1 2 2 2 3 2 2 2 2 1 2 3 3 3 3 3 3 2 2 1 2 2 4 8 12 24 40 49 52 56 57 55 56 54 53 55 54 49 42 38 40 46 50 53 51 42 30 24 21 19 18 17 17 18 14 9 7 6 6 6 5 5 5 6 7 8 8 9 12
2 2 2 2 2 2 2 2 3 3 3 3 2 2 2 2 2 2 2 2 1 2 2 2 2 2 2 2 2 2 2 2 3 3 3 3 3 2 2 2 2 2 5 11 22 36 44 50 57 56 56 58 53 51 55 56 51 42 36 36 42 49 52 50 42 32 28 25 21 17 17 17 17 14 9 6 5 5 6 6 5 4 5 7 8 8 8 10
2 2 2 2 2 2 2 2 2 2 2 2 2 3 3 2 2 2 2 2 2 2 2 2 2 2 2 2 2 2 1 2 3 3 3 3 3 3 2 2 2 2 3 8 19 30 37 48 57 55 55 57 53 49 52 54 50 42 37 35 38 47 51 49 40 32 29 27 22 16 15 16 17 15 11 9 8 6 5 5 5 4 5 7 8 8 8 8
2 2 2 2 2 2 2 2 2 2 2 2 2 2 2 3 3 3 2 2 2 2 2 2 2 2 2 2 2 2 2 1 2 3 3 3 3 3 2 2 2 2 2 5 17 29 35 44 50 51 52 53 52 51 50 51 49 45 42 36 36 44 48 45 38 28 27 28 23 15 12 15 18 19 18 16 12 8 6 5 5 5 4 6 7 7 8 8
3 3 3 2 2 2 2 2 2 2 2 2 2 2 2 2 2 3 3 2 2 2 2 2 1 2 2 3 3 2 2 1 2 2 3 3 4 4 2 2 2 2 2 3 12 23 28 35 41 46 49 49 54 56 51 49 50 51 47 37 35 40 41 40 35 25 25 29 24 16 14 14 13 18 23 24 22 15 9 7 6 6 5 5 6 6 8 8
3 3 3 3 3 2 2 2 2 2 2 2 2 2 2 2 2 2 2 2 3 2 2 2 1 2 2 2 3 2 2 2 2 2 2 3 3 4 3 2 2 2 2 2 7 14 18 24 32 39 43 47 54 54 50 49 49 52 50 40 36 38 36 35 30 22 24 27 24 23 24 22 16 15 18 25 32 25 14 11 9 8 8 6 5 5 6 8
4 4 4 3 3 3 3 3 2 2 2 2 2 2 2 2 2 2 2 2 2 3 2 2 2 2 2 2 2 2 2 2 2 1 2 3 3 4 4 2 2 2 2 2 3 6 8 12 19 28 36 43 48 47 46 47 47 51 50 43 38 36 34 31 24 21 24 29 32 33 32 30 27 23 22 30 42 39 24 16 13 11 10 9 8 6 5 6
6 5 4 4 4 4 3 3 3 3 2 2 2 2 2 2 2 2 2 2 2 2 2 2 2 2 2 2 2 2 3 2 2 2 1 2 3 3 4 3 2 2 2 2 2 3 4 6 9 20 31 36 39 39 40 41 43 48 47 43 38 33 31 26 22 21 25 35 43 40 34 33 35 34 32 36 43 45 35 25 19 15 13 11 10 9 7 5
7 6 6 5 5 4 4 4 3 3 3 3 3 2 2 2 2 2 2 2 2 2 2 2 2 2 2 2 1 2 3 3 2 2 2 1 2 3 3 3 3 2 2 2 2 3 3 5 8 17 27 30 31 31 33 34 38 42 43 42 39 33 28 21 20 24 30 43 49 45 40 40 45 46 40 36 36 39 38 35 30 23 17 13 11 11 11 8
6 7 7 6 6 5 5 4 4 4 4 4 3 3 3 3 2 2 2 2 2 2 2 2 2 2 3 2 2 2 2 3 3 2 2 2 2 2 3 3 3 2 2 2 2 2 3 5 8 13 21 26 27 24 23 25 29 35 37 40 39 35 34 27 22 28 37 46 50 48 44 43 50 54 50 44 36 33 33 34 34 30 25 19 12 11 12 11
6 7 7 7 7 7 6 6 5 5 4 4 4 4 3 3 3 3 2 2 2 2 2 2 2 2 2 3 2 2 2 2 3 3 2 2 1 2 3 3 3 3 3 2 2 2 3 4 6 10 15 20 20 15 14 17 25 33 35 39 37 34 38 35 29 34 42 48 51 50 47 46 50 54 55 54 49 45 41 36 33 32 31 25 18 15 13 12
6 6 7 7 7 7 7 7 6 6 5 5 5 4 4 4 4 3 3 3 2 3 2 2 2 2 2 2 2 2 2 2 3 3 3 2 2 2 2 3 3 3 3 2 2 2 2 3 4 6 7 10 11 9 11 18 28 34 37 41 41 40 42 35 31 38 43 49 52 51 49 49 52 54 58 62 64 64 60 49 37 31 30 28 24 20 15 12
7 7 7 7 7 7 7 7 7 7 6 6 5 5 5 4 4 4 3 3 3 3 2 2 2 2 2 2 2 2 2 2 2 3 3 3 2 2 2 2 3 3 3 3 3 2 2 2 2 2 3 7 11 14 16 20 27 32 38 42 46 56 53 36 34 41 46 52 52 48 49 50 52 54 56 59 62 62 63 58 46 37 31 29 28 24 17 13
8 7 7 7 7 7 7 7 7 7 7 6 6 5 5 5 5 4 4 4 3 3 3 3 2 2 2 2 1 2 2 3 2 2 3 3 3 2 2 2 2 3 3 3 3 3 3 2 2 2 6 14 22 25 22 18 21 28 36 41 50 63 58 44 44 51 57 61 55 47 46 46 48 50 51 51 51 51 54 56 54 53 47 38 34 30 22 15
9 9 8 8 8 7 6 7 7 7 7 7 6 6 6 5 5 5 5 4 4 4 3 3 3 3 2 2 2 1 2 3 3 2 3 4 3 2 2 2 2 3 3 3 3 3 3 2 2 3 7 17 27 30 26 18 18 25 34 41 53 61 56 51 52 57 66 66 58 54 49 47 48 48 48 47 46 47 48 51 55 61 60 51 47 44 35 24
12 11 10 9 9 8 7 7 7 7 7 7 7 7 6 6 6 5 5 5 4 4 4 3 3 3 2 2 2 1 2 3 3 2 2 3 4 3 3 2 2 2 3 3 3 3 3 2 3 3 6 12 20 26 25 19 15 21 31 38 50 56 51 52 55 58 66 65 61 62 56 52 52 49 50 49 46 46 46 46 51 59 62 60 58 56 50 42
15 13 12 11 10 9 8 7 7 7 7 8 7 7 6 6 6 5 6 5 4 4 4 4 4 3 3 3 2 2 1 2 3 3 2 2 4 4 3 2 2 2 3 3 3 3 3 3 3 4 5 8 15 20 20 16 12 17 27 32 46 57 52 56 64 64 64 62 64 68 60 54 54 55 58 56 51 48 47 45 44 50 58 61 62 60 56 55
17 16 14 13 12 11 9 8 7 7 7 8 8 8 7 7 6 6 6 6 5 4 4 5 4 4 4 3 3 2 2 2 3 4 3 2 3 4 4 3 3 2 2 3 3 3 3 3 3 3 5 8 12 13 13 14 11 14 22 26 42 60 61 63 67 66 62 58 65 72 64 57 58 64 70 66 63 60 54 51 46 43 48 54 57 57 54 54
18 17 16 15 14 12 11 9 8 7 7 8 8 8 8 7 7 6 6 6 5 5 5 5 5 5 5 4 4 3 3 3 3 3 3 3 2 3 5 4 3 3 3 3 3 3 3 3 3 3 6 8 10 10 11 15 13 12 17 24 43 63 65 65 68 69 62 58 70 77 65 60 62 68 74 73 71 66 58 58 56 46 45 51 55 56 56 54
19 18 18 17 16 14 13 11 9 8 8 8 9 9 9 8 8 7 7 6 6 6 6 6 6 6 6 5 4 4 4 4 4 3 3 3 2 3 4 4 4 3 3 3 3 3 3 3 3 3 4 7 8 8 9 14 12 11 16 24 44 63 63 63 71 74 68 67 78 76 61 60 62 61 65 68 65 58 56 61 58 50 51 57 61 61 60 58
22 20 19 19 18 16 15 13 11 9 9 9 9 10 10 9 8 8 7 6 7 8 8 7 7 7 6 6 5 4 4 4 5 4 3 4 3 3 4 4 5 4 3 3 3 3 3 3 3 3 4 5 5 6 11 16 12 10 19 25 40 60 65 66 74 76 74 76 78 71 60 58 58 57 59 63 59 49 53 62 60 59 61 59 60 62 62 60
26 23 21 21 20 19 17 15 13 11 11 10 10 10 10 10 9 9 8 7 7 8 7 7 6 6 6 6 5 4 4 4 5 5 4 4 3 3 3 4 5 5 4 4 3 3 3 3 3 3 4 3 5 10 15 21 19 14 21 26 34 53 63 68 73 74 77 76 70 68 66 60 54 55 59 58 54 47 52 62 66 68 65 57 52 52 58 59
30 27 25 23 22 21 20 18 15 14 13 11 11 11 11 11 10 9 8 7 8 9 8 7 7 7 7 6 6 5 4 4 5 5 4 4 4 3 3 4 6 6 5 4 3 4 3 3 3 2 4 4 9 18 22 30 33 25 26 28 30 45 60 67 68 70 77 72 62 65 72 68 53 49 57 55 47 48 53 60 66 65 59 58 59 54 56 59
33 31 28 26 24 23 23 21 18 17 16 14 13 12 12 11 11 10 8 7 9 9 8 8 7 7 6 6 6 5 5 4 4 5 4 4 5 4 3 4 5 6 5 5 4 4 3 3 3 3 5 5 11 24 32 39 43 35 32 33 32 40 57 70 70 71 74 64 55 58 66 64 42 34 51 55 46 48 52 53 54 50 47 58 70 66 63 62
33 33 31 29 27 26 25 24 22 19 18 17 16 14 13 12 11 9 9 9 10 9 9 9 8 7 7 6 6 6 5 4 4 4 4 5 5 5 4 3 5 6 5 5 4 4 4 3 4 3 4 6 11 23 35 44 49 42 35 35 37 40 51 67 72 71 68 55 46 51 57 46 22 22 47 54 47 50 51 45 41 39 42 54 66 67 67 67
35 34 33 31 29 29 27 26 25 23 21 20 19 17 16 14 11 9 10 12 12 11 10 9 8 8 7 6 6 6 5 4 4 4 4 5 5 6 5 4 4 6 6 6 5 4 4 3 4 3 4 6 10 19 29 36 41 39 33 34 37 38 43 59 70 69 64 49 40 51 55 30 11 23 43 48 48 49 48 41 35 36 43 51 60 64 64 65
37 36 36 34 31 32 31 28 27 26 24 22 22 20 18 14 11 11 12 13 14 13 11 10 9 8 8 7 7 6 5 5 4 4 4 4 5 6 6 5 4 6 7 7 6 5 4 4 4 3 4 6 9 17 24 33 40 35 29 32 36 35 35 49 65 68 66 56 47 56 50 18 11 31 39 41 47 46 43 41 37 39 42 45 49 49 47 50
40 39 38 37 35 34 34 32 30 29 27 25 24 22 18 15 14 14 14 15 16 15 13 12 10 9 8 7 7 6 6 5 4 4 4 4 5 6 8 6 4 5 7 7 7 5 4 4 4 3 4 5 11 18 26 42 55 48 39 38 37 34 32 42 61 70 74 72 62 59 43 12 13 34 36 38 44 42 42 43 40 40 40 40 39 35 34 41
43 42 40 39 39 38 37 36 35 33 30 27 26 21 17 17 18 18 18 17 18 17 15 13 11 10 9 8 8 7 6 6 5 5 4 4 4 6 9 8 6 6 7 8 8 6 5 4 4 4 4 6 13 20 28 43 53 51 47 40 32 35 35 40 57 70 80 81 67 58 45 19 13 26 31 33 37 38 39 39 38 38 38 37 36 35 34 39
48 47 45 42 42 42 41 40 39 38 35 32 28 22 20 20 21 21 21 20 20 19 17 14 12 11 9 8 8 7 7 6 5 5 5 4 4 5 9 10 7 6 7 10 11 9 6 4 4 5 4 6 14 23 30 40 50 51 43 30 30 44 44 40 53 67 78 79 65 54 49 34 21 19 23 27 28 30 32 32 34 35 35 34 36 39 39 43
51 52 51 48 46 45 45 44 43 42 40 36 31 27 25 24 24 26 26 24 23 21 19 17 14 12 10 9 8 7 7 6 5 6 5 5 5 5 9 12 10 7 9 11 12 11 9 5 4 5 5 5 11 23 32 37 48 55 45 34 42 53 47 39 46 55 64 70 62 54 49 37 22 15 21 28 25 23 28 32 31 30 33 34 36 43 46 48
51 56 57 54 51 49 48 47 46 45 43 38 35 33 31 29 29 31 31 29 26 23 21 19 16 13 11 9 8 7 7 6 6 6 5 6 6 6 11 14 11 8 10 13 13 13 12 9 6 4 6 5 6 17 27 32 40 49 50 50 54 55 50 44 39 35 44 57 57 52 42 24 13 12 21 32 29 22 27 32 31 30 33 34 36 44 51 52
49 56 60 58 56 55 52 50 48 47 45 41 38 37 36 34 34 34 34 32 29 26 23 21 18 15 12 9 8 7 7 6 6 6 5 6 6 8 14 17 14 12 13 16 16 16 15 14 10 6 5 6 5 8 15 26 36 41 46 54 58 56 53 52 44 33 36 49 50 46 35 15 7 12 21 32 33 27 27 32 35 34 35 37 39 46 51 50
51 56 61 60 60 59 56 53 50 48 46 43 42 41 39 37 36 37 37 34 31 28 26 23 20 17 13 10 8 7 6 6 6 6 6 5 6 12 19 20 19 17 16 16 17 17 15 14 14 13 8 5 5 5 7 17 32 39 40 42 48 55 53 51 48 35 32 41 43 42 35 18 9 13 23 34 38 36 35 34 36 40 44 45 47 50 50 46
56 61 63 61 62 63 61 57 54 50 47 45 44 43 42 40 38 39 39 37 34 31 28 25 23 19 16 12 8 7 7 6 6 6 6 5 6 17 29 27 23 21 18 15 15 16 17 17 18 18 13 7 5 5 5 8 20 35 41 37 39 49 53 50 42 30 25 30 33 39 39 25 12 11 22 35 37 40 45 41 39 44 48 49 48 49 48 43
64 70 70 66 66 67 65 61 58 54 50 48 46 45 44 42 39 40 41 40 37 34 31 28 25 22 18 12 8 7 7 6 7 6 6 5 5 19 37 39 30 24 22 20 17 17 20 20 18 17 13 11 10 8 7 7 8 18 31 33 33 38 45 47 41 32 29 28 29 35 37 26 14 10 21 34 34 36 40 39 39 44 45 46 46 44 45 46
73 79 80 75 73 73 70 66 63 59 55 52 48 46 46 44 41 41 44 43 40 37 34 31 28 24 20 14 9 7 7 7 7 6 7 6 6 19 40 48 42 34 30 29 29 28 26 20 18 20 17 15 16 13 9 7 6 7 12 19 22 25 34 43 44 42 40 37 35 38 36 27 16 11 21 34 37 37 36 33 35 41 43 44 45 42 42 46
81 86 88 83 80 79 76 71 68 64 60 56 52 50 49 48 45 45 47 47 44 40 36 33 30 25 20 15 10 8 7 7 7 7 7 7 8 25 50 58 53 50 45 40 39 39 33 25 22 23 19 14 14 12 7 5 5 5 5 7 11 16 24 34 41 43 42 40 42 41 34 27 16 10 20 40 52 53 45 36 32 36 41 41 41 43 43 42
81 89 92 89 86 84 81 77 73 69 65 61 58 55 53 52 50 50 51 50 47 43 39 35 31 26 21 16 10 9 7 7 8 7 7 9 10 29 62 72 64 62 61 54 49 44 38 33 28 23 17 13 12 11 9 8 7 7 5 5 6 8 12 20 27 31 31 32 34 27 19 19 15 8 17 39 55 58 52 43 35 34 39 39 38 41 42 40
82 90 95 95 91 86 84 82 78 74 70 66 63 60 58 57 56 55 54 52 49 45 41 36 32 26 22 16 10 9 8 7 7 6 8 12 12 28 62 81 76 71 70 67 62 54 47 40 32 26 19 14 13 14 13 14 13 11 9 7 5 5 5 7 10 12 14 21 22 12 7 13 13 8 17 34 44 49 52 48 38 34 37 38 39 41 40 39
92 95 98 100 97 91 88 86 83 79 75 71 68 66 65 63 62 60 58 55 51 46 42 37 31 25 20 16 11 9 8 7 7 7 9 15 21 36 64 84 86 81 75 72 69 63 57 49 39 33 27 19 15 18 18 18 17 15 14 13 9 6 4 4 5 4 6 11 12 6 5 10 9 8 20 30 33 39 47 46 41 38 38 39 41 42 39 39
99 100 100 101 102 99 95 91 88 84 81 76 73 73 72 70 68 64 61 59 53 47 42 36 29 24 19 15 12 10 9 8 7 7 10 16 25 42 68 88 92 88 82 77 73 68 62 58 50 42 35 28 22 22 23 23 20 17 17 17 16 11 6 4 4 4 5 6 7 6 7 9 8 13 23 30 33 36 38 41 45 44 41 41 43 42 41 42
95 98 101 102 102 101 99 97 93 89 87 83 78 78 79 76 72 68 64 60 53 45 39 33 27 24 19 14 13 11 9 9 8 7 10 17 24 37 64 91 96 90 87 83 77 71 64 62 61 53 44 38 31 28 29 29 26 21 17 17 20 17 11 7 6 5 5 5 5 6 9 9 8 13 22 30 38 41 36 37 45 46 44 46 47 46 46 47
86 91 96 100 102 101 100 100 97 93 91 88 83 81 82 78 75 72 65 59 49 39 35 31 25 22 19 15 13 12 10 9 9 10 12 17 24 30 50 82 97 92 89 86 79 75 69 63 63 62 57 49 41 37 35 35 35 30 20 17 20 19 14 10 8 7 6 6 6 6 9 10 7 9 19 27 35 40 36 35 42 47 48 50 50 48 49 50
75 81 87 93 97 101 102 101 100 96 93 90 86 84 82 76 73 70 62 53 43 35 32 28 24 21 20 17 15 13 11 10 10 15 16 16 26 31 36 64 92 95 89 87 80 75 72 66 65 67 60 51 47 41 36 39 43 34 18 13 15 16 16 13 11 11 8 7 8 8 8 9 7 9 18 25 30 35 34 33 38 45 48 49 49 47 47 48
Wind_Speed
13 13 14 14 15 17 18 20 21 22 23 24 24 23 23 22 21 20 19 18 15 13 11 11 11 10 7 4 3 2 3 5 7 10 13 13 10 7 6 9 11 14 18 20 21 20 18 17 16 16 15 12 10 10 11 12 13 14 14 13 12 11 11 11 8 7 7 7 9 10 7 7 6 7 11 9 9 9 10 12 10 9 10 10 8 6 9 8
14 14 14 14 14 15 15 16 18 20 22 23 24 24 24 24 23 22 21 20 19 16 13 12 12 12 10 6 5 4 4 6 8 12 12 8 9 11 10 10 12 15 18 20 21 22 20 18 18 17 15 13 11 11 11 11 12 13 13 13 13 12 12 12 9 6 6 6 8 9 7 6 5 5 8 8 8 8 9 10 9 9 10 11 8 7 8 8
15 15 15 15 15 15 15 15 15 16 18 20 22 24 24 25 24 24 23 22 21 19 16 14 14 14 13 10 7 6 6 7 10 11 8 7 11 14 12 10 12 16 19 21 22 22 21 20 19 17 15 14 12 12 12 11 11 11 12 13 13 13 13 12 10 7 6 6 7 8 7 5 4 4 5 7 7 7 8 9 8 8 9 10 9 7 8 8
17 16 16 16 16 16 16 16 15 15 16 17 19 21 23 24 25 25 25 24 23 22 20 17 16 15 14 13 10 9 8 9 10 9 9 10 12 13 12 11 12 16 20 22 22 23 22 20 19 17 15 14 13 13 12 11 10 10 11 12 13 13 13 11 10 8 5 5 7 8 7 6 4 2 4 6 7 6 7 7 7 8 8 9 9 7 7 7
19 18 18 17 17 17 17 17 17 16 16 16 16 17 19 21 23 25 25 25 24 23 22 20 18 17 16 16 14 12 11 11 10 9 10 13 13 13 13 14 14 15 20 22 21 21 21 20 19 17 15 14 13 12 12 12 10 10 11 11 12 13 12 10 10 9 5 4 6 7 8 7 3 2 4 6 7 6 6 6 7 8 8 8 8 7 7 7
20 20 20 19 19 18 18 17 17 17 17 17 17 16 17 18 20 22 24 25 25 24 24 23 21 19 18 17 17 15 13 13 12 11 11 14 15 14 14 16 17 16 19 21 21 20 21 20 19 17 15 14 13 13 13 12 11 10 10 11 11 12 11 9 9 9 6 4 5 7 8 8 5 4 6 7 7 6 5 6 7 8 8 8 8 8 7 7
21 21 21 20 20 20 19 19 18 18 18 18 17 17 17 17 18 19 21 23 24 25 24 24 23 22 20 18 19 17 16 16 14 13 12 13 16 16 15 17 18 17 18 21 20 20 20 20 19 17 16 15 13 13 13 13 11 9 10 11 11 11 10 8 9 10 7 4 4 6 8 8 7 6 8 8 7 6 5 5 6 7 8 8 8 8 7 7
21 21 21 20 20 20 20 20 19 19 19 19 18 17 18 18 18 17 18 19 22 24 25 25 24 24 22 20 19 19 21 19 15 15 14 13 15 16 16 17 19 18 18 20 22 21 22 21 20 19 17 16 15 14 13 12 11 9 9 10 11 11 9 7 8 9 8 5 3 5 7 8 8 8 8 8 8 7 6 6 6 7 8 7 7 7 7 7
20 20 20 20 20 19 19 19 19 20 20 19 18 17 18 19 19 19 18 17 19 21 24 25 25 25 24 23 21 21 24 21 18 18 15 14 15 16 16 17 19 19 19 21 23 24 24 23 22 20 18 18 17 15 14 12 11 10 8 8 10 11 9 6 7 9 9 6 4 5 6 7 8 8 9 9 8 8 8 7 6 6 7 7 7 7 7 6
20 20 20 20 19 19 19 18 18 19 19 19 18 17 18 19 19 20 19 18 18 19 21 23 25 26 26 25 23 24 25 23 21 20 17 16 16 16 17 18 19 20 20 21 24 24 23 24 24 23 21 21 19 17 15 13 12 11 8 7 8 10 9 6 7 9 9 7 6 6 6 7 8 9 9 9 8 8 8 9 7 6 7 7 6 6 7 7
21 21 21 21 20 20 19 19 19 19 19 18 17 16 17 18 19 20 20 19 19 19 19 21 23 25 27 26 26 28 26 23 24 23 21 20 18 18 18 19 20 21 21 22 25 26 25 26 26 25 23 22 21 19 18 16 14 12 8 7 6 9 10 7 7 9 9 7 7 8 7 7 9 9 9 9 8 8 8 9 8 7 7 6 6 5 6 7
22 22 22 22 22 22 21 21 21 21 21 20 18 17 17 17 18 19 20 20 20 20 20 20 20 23 26 26 30 31 26 24 26 27 26 23 21 20 19 20 22 23 23 23 26 28 28 27 27 26 25 22 22 21 20 19 17 14 11 9 7 8 10 7 8 10 10 8 8 8 8 7 9 9 9 8 7 7 7 8 9 8 8 7 6 5 5 6
23 23 23 23 23 23 23 23 23 23 23 22 21 19 18 18 18 19 19 20 20 21 21 21 20 20 22 27 32 31 26 26 29 29 29 26 23 22 21 22 24 25 26 25 28 30 29 29 29 28 26 24 23 23 21 20 19 17 14 11 9 9 10 8 9 11 11 9 9 9 8 8 9 9 9 8 6 5 5 7 8 9 8 7 6 5 5 5
23 24 24 24 24 24 24 24 24 25 25 24 23 22 21 20 20 19 19 20 20 20 22 22 21 20 20 25 30 29 27 29 30 31 30 28 26 25 23 24 25 27 27 28 29 29 28 28 29 28 27 26 25 23 21 19 18 18 17 13 11 11 10 10 10 12 11 10 10 10 11 11 11 11 10 8 6 5 3 4 6 8 8 7 7 6 5 4
24 24 25 25 25 25 25 25 25 26 26 26 25 24 23 23 22 21 21 21 20 20 21 22 22 21 20 24 26 25 28 30 32 32 31 31 29 27 26 26 27 28 29 29 30 29 28 26 27 27 27 26 26 24 21 19 17 17 18 13 11 12 12 11 12 13 11 10 10 10 12 13 13 12 11 9 6 5 4 3 3 5 6 7 7 6 5 4
25 25 25 25 26 26 26 26 26 27 27 27 27 26 25 25 24 24 23 23 22 21 21 21 23 22 22 24 23 22 28 32 34 34 33 33 32 30 29 28 28 29 30 31 31 31 29 28 28 28 28 27 25 24 22 20 17 17 17 13 11 12 13 13 14 13 11 11 11 11 11 12 13 13 11 9 7 5 4 3 2 2 4 5 6 6 6 5
26 26 26 26 26 27 27 27 27 28 28 28 27 27 27 26 26 25 25 25 24 23 22 22 22 23 24 25 23 22 26 32 35 35 34 34 33 33 32 30 30 30 31 31 31 31 30 30 30 29 29 27 26 24 20 18 16 16 15 14 14 13 12 13 14 14 13 12 10 10 10 11 12 13 11 9 7 5 3 3 2 2 2 4 5 6 6 5
27 27 27 28 28 28 27 27 28 28 29 29 28 28 28 27 27 26 26 26 25 25 24 23 23 23 25 26 25 24 24 30 35 35 36 36 35 35 34 33 32 32 31 31 31 31 31 31 31 32 31 29 26 22 16 12 13 14 13 14 15 15 15 15 15 16 15 13 11 10 10 9 10 12 12 10 8 5 3 2 2 2 3 3 4 5 6 5
28 28 28 29 29 29 29 28 28 28 29 30 29 29 29 28 28 27 27 27 27 26 26 25 23 23 25 27 28 26 23 26 33 36 37 38 38 37 37 36 34 33 33 31 31 31 30 30 31 31 29 27 24 18 13 12 14 15 15 16 15 14 16 18 18 18 16 14 13 12 11 10 9 10 11 10 8 5 3 2 3 3 3 4 4 5 6 6
30 30 30 30 30 30 30 29 29 29 29 30 30 30 30 29 28 28 28 28 28 28 28 27 24 23 26 28 30 28 24 24 30 35 36 38 39 39 39 38 36 35 34 32 31 32 32 30 29 27 25 25 23 20 18 17 18 18 18 19 18 15 18 19 19 19 17 16 14 13 13 12 11 10 10 9 7 5 4 4 4 5 4 4 4 5 6 6
31 31 31 31 31 32 31 31 30 30 29 29 30 31 31 30 29 28 28 28 29 29 29 29 25 21 25 29 30 29 25 24 27 31 35 38 41 41 41 40 39 37 35 33 33 35 34 30 26 26 28 28 27 26 24 21 20 20 18 19 21 21 21 21 20 19 19 18 17 16 14 13 12 11 10 9 8 6 6 6 6 6 5 5 4 5 6 6
33 33 32 32 33 33 33 32 31 31 30 30 30 31 31 31 30 29 28 27 30 31 30 30 27 22 22 26 30 30 26 24 26 29 33 37 41 43 43 41 40 39 37 36 36 37 36 29 25 28 31 33 33 31 29 25 22 22 21 21 24 25 24 24 24 22 22 22 20 18 16 15 14 12 11 10 8 7 6 7 7 7 7 6 5 5 6 6
35 34 34 34 34 34 34 33 33 32 31 31 30 30 31 31 30 29 28 26 27 31 31 30 30 27 24 24 27 29 27 26 28 31 32 36 40 42 44 43 42 41 40 39 38 38 35 28 27 31 34 35 36 34 32 29 25 24 24 23 24 26 27 27 26 24 24 24 22 20 18 16 15 13 11 10 10 8 7 7 8 9 9 9 7 7 7 7
37 36 36 35 35 35 35 34 34 33 32 32 31 31 31 31 31 29 29 27 25 28 31 30 30 31 29 25 25 27 27 27 30 32 31 34 39 42 44 44 44 44 43 41 39 39 35 30 31 35 36 36 37 36 34 30 25 23 23 22 23 26 27 27 26 24 24 24 24 22 20 18 16 14 11 10 9 8 6 7 8 10 11 10 9 8 8 8
39 38 37 37 37 37 36 36 35 34 34 34 33 32 32 32 32 30 30 29 25 26 29 30 30 30 31 29 27 26 27 26 27 32 33 33 37 42 43 45 46 46 44 43 41 40 37 33 35 38 38 38 38 37 35 31 26 23 22 21 22 26 28 28 27 26 25 25 24 23 21 20 17 15 13 10 9 7 6 6 7 9 11 11 10 10 9 9
40 39 38 38 38 38 38 37 36 36 35 35 34 34 33 33 32 31 31 30 28 26 27 30 30 29 31 32 30 27 27 25 26 33 35 33 36 41 44 46 47 46 45 45 44 43 39 35 37 40 40 41 40 38 36 34 30 24 21 20 23 28 30 30 29 28 28 25 22 22 22 22 20 19 17 14 13 11 8 6 6 7 9 10 9 9 9 9
41 40 39 39 39 39 39 39 38 37 36 36 35 35 35 34 33 33 32 32 30 26 25 28 29 29 29 30 30 29 27 25 26 31 34 33 35 40 44 46 47 47 47 47 46 44 40 36 38 42 42 42 42 39 37 36 32 24 20 21 25 29 30 31 30 29 28 25 23 24 24 25 26 24 22 19 17 15 10 6 5 5 6 8 6 5 6 7
43 42 40 40 40 40 40 41 40 38 37 36 36 36 36 35 34 34 34 34 30 26 25 27 28 28 29 28 29 29 28 25 25 29 33 35 36 38 44 46 46 47 47 48 47 44 41 38 39 42 43 43 40 38 37 37 33 24 22 24 27 29 29 31 31 30 28 28 28 27 26 28 29 26 23 22 20 16 12 7 3 3 5 5 5 5 5 6
44 43 41 41 41 41 41 42 42 40 39 37 37 37 37 37 36 35 35 35 30 26 26 27 27 29 30 29 29 29 30 28 26 27 31 36 37 37 42 45 44 46 49 50 48 44 43 42 41 45 47 43 39 39 40 40 36 28 26 27 28 31 32 32 33 32 31 32 31 29 28 29 28 26 25 24 22 18 14 11 7 6 5 4 3 5 6 7
44 44 43 42 42 42 42 42 42 41 40 39 38 38 38 38 37 37 37 34 30 27 27 28 28 30 30 30 30 30 31 30 27 26 29 35 36 36 39 44 46 47 50 51 49 46 45 45 45 48 48 44 42 44 43 44 42 35 33 31 30 34 35 35 35 34 35 36 33 29 27 28 28 27 27 26 21 18 17 17 15 13 9 5 4 5 5 7
46 46 45 43 43 43 43 43 43 42 42 41 40 39 39 39 39 39 37 32 29 28 29 30 29 30 31 31 32 30 30 31 28 26 28 32 36 37 39 44 48 50 52 53 52 49 48 49 48 49 48 46 47 49 47 48 47 43 40 37 35 35 37 38 38 38 40 38 34 30 28 30 27 22 25 25 19 20 22 20 19 17 12 8 8 7 6 7
47 47 46 45 44 43 44 44 44 44 44 42 42 41 41 41 41 39 36 32 30 30 31 31 30 31 33 33 33 32 31 31 30 27 27 31 35 36 37 42 48 50 52 54 52 51 50 50 49 49 49 49 50 52 52 52 52 48 45 43 40 40 40 41 42 42 43 40 34 31 30 32 24 13 20 24 21 22 21 19 19 16 13 12 12 11 10 10
49 49 48 47 45 44 44 44 45 46 45 44 44 43 43 44 42 37 35 33 32 32 32 32 32 33 34 34 34 33 32 32 31 28 27 29 33 35 36 41 46 50 51 51 51 51 51 51 51 50 51 52 53 54 54 55 54 51 49 46 45 44 44 45 45 44 43 39 34 32 34 32 20 12 19 23 20 21 19 18 19 16 14 15 15 15 15 13
51 50 50 49 47 45 45 45 46 47 47 47 46 46 47 46 41 36 36 35 33 34 34 34 34 35 35 34 35 34 33 33 30 28 28 29 32 35 37 40 45 49 51 51 52 52 52 52 52 52 53 53 54 55 54 54 53 51 48 46 46 46 44 44 46 44 43 39 34 36 37 27 14 13 20 22 22 22 20 18 20 18 16 17 17 17 15 12
52 52 51 50 49 47 47 47 47 48 49 49 49 49 49 45 40 37 38 37 36 36 36 36 36 36 35 35 36 36 35 34 31 28 28 29 31 34 36 39 43 48 51 53 54 54 53 53 52 52 54 54 54 55 55 56 57 54 51 49 50 48 43 42 44 44 42 41 39 41 39 26 16 16 19 22 23 24 22 21 22 21 19 18 16 14 13 12
53 53 53 52 51 50 49 48 48 49 51 51 52 51 48 43 41 41 40 40 40 38 36 36 36 36 36 36 38 38 37 36 33 29 28 29 31 33 35 38 41 46 50 52 53 53 54 54 52 52 56 56 55 56 56 58 60 58 56 55 52 48 44 43 45 45 44 45 45 45 41 32 25 21 20 20 20 20 21 21 20 20 19 19 16 13 13 13
54 54 54 54 53 51 51 50 50 51 52 54 54 51 47 45 44 43 43 43 42 40 38 37 37 37 37 38 39 39 38 37 35 31 29 29 31 32 34 38 40 44 48 50 51 51 52 53 51 52 56 57 57 57 57 60 61 60 59 54 50 50 49 46 47 48 48 49 49 48 44 39 35 29 24 22 21 19 19 18 18 17 17 16 13 12 13 12
56 55 56 55 54 53 52 51 51 52 53 55 55 51 48 48 46 45 45 45 44 42 40 39 39 39 38 39 40 39 39 39 37 34 31 30 31 30 33 38 39 43 47 49 50 51 50 52 52 53 54 57 58 60 61 62 63 64 60 55 54 56 54 50 50 52 52 53 53 50 47 44 39 33 26 24 23 20 17 17 17 15 13 11 9 9 10 11
59 57 56 56 56 55 53 52 52 52 54 55 54 51 49 48 47 47 47 47 47 45 43 41 41 41 41 41 41 39 39 40 39 37 33 31 31 30 32 37 39 42 45 47 50 52 51 51 52 53 54 56 59 63 64 64 65 66 64 61 61 60 57 54 53 52 53 54 54 52 50 46 39 33 28 26 24 20 15 15 16 13 11 10 9 8 9 11
62 60 58 57 57 56 55 54 53 54 55 54 52 52 51 50 50 50 50 50 49 48 46 44 43 43 43 43 42 40 39 40 39 38 35 33 31 31 32 35 38 41 43 46 48 50 51 52 52 53 54 56 59 63 64 64 66 67 67 67 66 63 61 59 55 54 54 55 54 53 53 48 38 32 29 27 25 21 16 15 17 14 12 11 9 9 11 13
65 62 59 58 57 56 55 55 55 55 54 53 53 53 52 52 52 52 52 52 51 50 49 47 46 46 45 44 43 41 40 40 40 39 37 34 31 31 32 35 37 40 43 46 48 50 52 54 53 52 54 57 59 60 61 63 66 67 67 67 66 65 63 61 60 58 56 56 56 55 56 50 40 34 31 28 27 23 18 16 14 12 11 12 11 12 14 15
66 63 61 60 57 56 55 55 55 55 54 53 53 53 53 53 53 53 54 54 53 52 51 50 48 48 47 45 43 41 40 40 40 40 38 35 32 31 33 35 38 41 43 45 48 48 50 52 52 52 54 56 57 57 58 60 64 67 68 67 66 65 65 64 63 60 57 58 58 57 58 54 44 37 31 29 27 24 21 18 14 12 13 14 15 17 18 17
66 63 62 60 57 56 55 54 55 55 54 53 53 54 54 54 54 55 55 54 54 53 52 51 50 49 47 45 43 42 41 41 40 40 39 36 33 32 34 36 38 40 42 43 45 45 47 51 52 53 55 55 54 54 55 57 59 65 69 69 68 67 66 65 64 61 58 59 59 58 59 56 48 39 32 29 26 23 23 22 17 15 16 17 20 22 20 18
66 63 61 60 57 55 54 54 55 55 54 54 54 54 54 54 54 55 56 55 54 53 52 52 51 50 48 45 43 42 43 42 41 40 39 37 35 34 36 37 38 39 40 42 43 44 46 49 51 51 53 54 54 54 56 58 59 62 66 68 69 68 67 67 66 64 63 63 61 60 61 58 50 40 34 32 29 25 24 24 22 20 18 19 22 23 21 20
65 63 61 60 58 55 53 54 54 54 55 55 55 54 55 55 55 55 56 55 54 54 54 53 52 50 48 45 44 44 44 44 42 40 40 39 37 37 37 38 38 38 40 41 43 44 45 47 49 50 52 56 57 58 60 60 60 62 63 65 67 69 69 70 70 69 69 67 64 63 63 58 49 40 35 35 35 32 27 23 22 22 21 20 22 23 23 24
64 61 60 60 59 55 53 52 53 54 54 55 55 56 56 56 56 56 57 56 55 54 54 53 52 51 48 46 46 45 45 45 42 40 40 40 39 40 40 40 39 40 40 41 43 44 45 46 48 50 52 54 56 58 58 56 56 59 60 60 63 66 69 71 71 72 71 69 69 66 62 56 48 40 36 36 38 36 30 22 20 20 20 22 24 26 27 27
62 60 57 56 57 56 53 51 52 53 54 54 55 56 57 57 57 57 57 56 55 54 54 53 52 50 49 47 46 45 44 44 43 41 40 41 41 42 43 42 42 42 41 41 42 44 45 46 47 48 50 51 51 52 52 50 50 52 54 56 57 60 64 67 70 70 68 69 69 64 58 55 49 42 38 37 37 37 33 28 23 20 21 23 25 26 28 26
59 57 54 52 53 55 54 52 51 52 53 54 55 55 56 57 57 57 57 57 55 54 54 53 51 50 49 48 48 47 46 46 46 44 42 43 43 44 44 44 43 43 43 43 43 44 45 45 45 46 47 48 47 47 47 47 47 46 47 49 51 54 59 62 65 65 66 69 67 60 55 53 49 43 40 38 36 35 32 27 22 20 22 23 23 25 26 24
56 54 52 50 50 51 53 53 52 51 52 54 55 55 56 57 57 57 57 56 55 54 53 53 51 50 50 50 50 50 49 48 48 45 43 43 43 45 45 44 43 43 44 44 45 45 46 45 44 44 45 46 45 43 43 44 45 45 46 46 46 49 54 57 60 62 64 66 65 60 57 53 49 45 42 39 36 34 32 28 21 19 21 22 24 25 24 23
53 52 51 50 48 49 50 52 52 52 52 54 55 55 56 56 57 56 56 56 54 53 52 52 52 51 51 51 50 50 49 48 48 46 44 44 45 46 46 45 45 44 44 45 47 48 48 46 44 44 44 45 43 41 40 41 42 44 46 47 46 46 50 54 56 58 61 63 62 61 60 55 49 45 43 42 39 36 34 30 25 22 22 23 24 24 23 23
51 51 50 49 48 49 50 51 52 52 53 54 55 55 55 55 56 56 55 54 53 52 52 52 52 52 52 51 51 50 50 49 48 47 46 46 46 47 47 47 46 46 46 48 49 50 49 48 46 44 44 44 42 39 40 40 39 42 47 49 48 48 50 52 54 56 59 59 59 60 61 57 50 45 44 43 40 37 33 30 27 25 24 23 23 23 22 23
49 50 50 49 48 48 49 49 51 52 52 53 54 55 54 53 54 55 54 53 52 51 51 52 52 52 52 51 51 51 50 49 49 48 47 47 47 47 48 48 48 47 48 50 52 51 49 49 47 45 45 45 42 41 42 41 41 46 50 51 51 50 50 52 54 56 57 57 58 59 59 56 51 46 44 42 39 37 33 29 28 28 28 26 24 23 23 23
Wind_Direction
299 298 296 293 290 286 282 280 278 276 274 273 272 270 268 266 263 262 262 262 259 254 249 246 239 236 232 232 250 241 211 206 196 194 202 209 206 201 196 194 196 191 184 184 185 185 185 182 182 179 175 172 154 142 132 121 120 116 112 109 106 106 101 96 90 83 81 84 86 80 72 66 56 78 85 83 85 87 91 90 90 95 97 89 82 90 97 96
297 297 296 296 295 293 290 286 282 279 276 273 271 270 269 268 265 263 260 260 259 256 250 246 242 238 233 226 230 237 220 208 210 213 214 214 207 208 205 192 191 190 184 183 186 187 187 188 188 185 180 174 162 150 141 129 126 123 118 113 107 106 104 99 90 78 75 76 85 84 77 70 49 59 82 84 83 88 92 92 94 98 97 93 85 86 92 92
293 293 293 294 294 294 294 293 290 286 281 277 273 270 269 268 267 265 262 259 258 257 252 247 243 239 234 227 222 227 229 218 223 228 213 199 209 214 212 194 189 190 186 185 188 189 190 192 190 187 181 172 163 155 149 139 129 126 123 116 110 109 107 102 92 77 71 70 75 81 77 69 52 47 71 84 83 87 92 93 95 94 95 95 88 84 86 85
291 290 290 291 291 291 292 292 292 291 289 284 279 274 271 268 267 266 264 261 257 256 254 250 244 240 235 229 222 219 228 229 231 236 214 206 218 221 215 199 196 194 190 189 190 192 196 196 191 189 183 171 164 160 154 147 135 128 125 116 110 109 104 101 95 85 77 74 71 75 78 70 59 56 76 90 91 88 90 94 94 90 90 93 92 88 84 84
291 290 289 289 288 289 289 290 290 290 290 289 287 283 278 273 269 266 265 263 259 256 254 251 247 241 235 230 225 218 225 232 231 234 220 214 222 224 214 202 202 200 196 195 194 195 198 198 195 192 186 173 165 161 157 153 143 133 130 120 111 106 101 99 96 93 87 77 71 73 81 82 86 102 91 94 94 90 90 95 97 94 91 92 96 96 92 92
292 291 290 289 288 288 287 288 288 288 288 288 290 289 287 281 275 270 267 265 262 258 254 251 249 243 238 232 225 221 224 230 230 232 225 218 222 225 217 207 206 204 200 200 199 199 199 200 200 194 188 178 169 163 160 158 151 146 139 125 114 103 96 98 99 98 95 80 70 72 80 88 100 102 90 89 89 88 91 95 98 98 97 97 99 100 101 103
295 293 291 290 289 288 288 287 287 287 286 287 288 289 290 288 284 278 272 268 264 260 255 251 249 245 241 234 228 222 222 228 230 232 230 222 222 226 222 215 212 207 203 203 203 202 203 204 201 197 193 185 177 171 167 164 160 158 149 132 120 107 94 95 105 103 101 91 73 74 82 90 99 96 90 91 89 85 87 91 97 101 104 105 105 105 105 107
302 298 295 293 291 290 289 288 287 287 286 285 287 288 289 288 288 286 282 275 267 262 257 251 248 245 241 236 231 224 223 227 227 230 233 227 224 227 225 220 218 211 204 204 202 202 205 206 203 202 199 190 186 184 180 177 172 166 159 146 132 117 99 99 116 114 110 108 101 88 87 95 101 97 92 92 92 88 84 82 88 98 105 109 112 113 113 112
308 305 303 300 297 295 292 291 290 288 287 286 286 288 288 287 287 287 286 282 276 267 260 254 248 245 242 237 232 226 226 227 224 228 232 229 228 229 226 222 221 215 206 204 203 204 207 206 204 206 202 195 195 194 193 192 182 172 166 160 146 127 109 112 131 128 120 120 131 116 98 104 107 99 91 89 90 89 85 80 78 87 101 111 116 118 120 121
309 308 307 305 303 301 298 296 294 292 291 290 290 289 288 287 287 286 285 284 281 276 268 259 251 246 242 237 232 228 228 225 222 226 228 227 227 227 225 220 219 218 211 205 205 208 210 207 205 208 205 201 202 199 201 201 190 178 167 172 168 142 126 134 148 141 130 129 144 138 120 115 111 103 92 85 83 82 83 82 79 79 91 106 116 122 124 126
308 307 306 305 304 302 301 299 297 295 293 293 294 293 291 288 286 285 284 283 281 280 276 268 258 248 243 238 233 229 228 224 222 223 224 224 223 224 223 218 216 217 215 207 204 209 211 210 209 210 208 207 207 204 205 204 196 191 179 179 189 159 144 155 163 148 137 138 151 150 137 123 111 102 92 84 80 76 78 81 80 76 78 92 108 122 129 133
305 305 304 303 303 301 300 298 296 294 293 293 293 293 292 290 288 285 284 283 281 280 278 275 268 256 246 239 235 234 229 224 223 222 223 222 221 222 220 217 215 215 216 210 205 210 213 213 214 213 211 210 211 209 209 206 200 203 201 184 188 178 162 169 170 152 144 145 150 152 148 136 120 106 92 83 77 73 74 76 78 76 71 79 98 118 130 135
301 301 301 301 301 300 299 297 295 294 292 292 292 291 290 288 287 286 284 282 281 280 278 276 274 266 253 242 239 238 231 224 224 224 224 222 220 221 219 216 215 214 215 212 209 213 214 215 216 215 214 212 212 215 214 210 204 207 209 192 186 187 177 181 173 154 149 147 146 148 145 138 127 115 98 85 77 70 71 72 75 78 72 71 84 107 127 135
298 298 298 298 299 299 298 298 296 294 293 292 291 290 288 287 285 285 284 282 280 279 277 277 275 272 263 251 244 238 232 227 227 226 225 223 222 222 220 216 215 215 215 213 215 219 219 217 217 216 216 214 216 220 219 214 207 207 209 199 188 185 182 191 177 156 151 145 142 142 136 128 118 112 103 92 83 72 68 69 71 77 78 74 75 88 110 127
295 295 295 295 296 296 296 296 296 295 294 293 292 290 288 286 285 284 283 281 279 277 276 277 275 272 267 260 251 239 233 230 228 227 226 224 223 223 223 220 217 217 217 215 217 223 225 223 222 219 217 218 220 223 222 217 208 207 209 201 192 190 190 192 177 159 150 141 143 142 134 125 111 105 103 98 93 83 78 79 72 76 80 79 77 78 88 104
293 293 293 292 292 293 293 294 294 294 293 293 292 291 289 287 285 284 283 281 279 277 276 275 274 272 267 264 260 242 232 230 228 226 225 225 223 222 225 225 221 219 219 217 216 220 224 225 225 222 220 221 223 224 225 220 211 208 209 198 189 195 203 198 177 161 150 144 148 146 140 130 114 104 103 103 105 101 94 91 95 100 92 86 83 81 80 87
292 291 291 290 290 290 290 291 291 291 292 292 292 291 290 288 286 284 283 282 280 277 276 273 271 271 268 265 263 250 234 230 230 228 225 225 223 222 224 226 226 225 223 220 218 218 220 222 223 223 223 224 225 228 224 214 205 206 207 194 184 188 199 196 176 163 156 149 150 149 148 140 123 113 111 112 116 118 117 111 121 147 137 112 100 95 91 90
292 291 289 289 288 287 287 287 287 288 289 289 289 289 289 288 287 285 283 282 281 278 276 274 271 269 268 265 261 254 241 233 232 229 226 224 223 222 222 225 227 229 228 225 223 221 219 220 221 223 224 225 226 227 218 200 197 206 205 191 189 190 191 188 173 165 159 151 150 150 153 152 136 127 124 122 122 123 132 157 178 177 169 151 133 122 114 110
291 291 290 288 287 286 285 285 285 285 286 286 286 286 286 286 286 285 284 283 281 279 277 273 271 270 267 264 261 257 250 239 234 231 227 224 224 223 222 223 226 229 230 229 228 227 223 221 221 222 224 226 228 229 220 206 205 209 203 193 193 196 196 191 178 169 163 155 154 154 158 161 153 144 137 132 133 136 151 190 206 205 192 174 169 160 144 136
289 289 289 288 287 286 284 284 283 283 283 284 284 283 283 283 283 283 284 283 281 280 279 275 273 274 269 263 261 260 255 247 239 234 229 226 225 223 222 222 223 227 229 230 231 230 228 226 226 226 227 227 229 231 228 220 210 206 203 194 186 186 193 192 182 173 164 158 159 160 161 160 160 157 147 141 144 156 178 197 204 210 210 194 196 196 178 164
288 286 286 286 286 285 284 283 282 282 281 282 282 282 282 281 281 280 281 283 281 279 278 276 273 274 272 266 262 259 255 250 246 239 232 228 227 224 223 222 222 225 227 229 230 231 230 232 232 228 225 225 226 228 229 224 210 202 201 193 184 183 185 184 179 170 162 162 163 163 165 163 162 160 152 146 148 159 183 197 205 216 220 213 212 218 211 195
287 285 284 284 284 283 283 282 281 281 280 280 280 280 281 281 280 279 279 280 281 279 277 277 274 269 270 270 265 260 256 251 247 242 234 229 229 227 225 223 222 223 225 227 229 231 232 235 233 226 221 221 222 224 227 225 213 201 199 195 188 185 183 180 178 172 167 167 166 165 169 168 165 164 161 160 157 157 175 192 203 215 220 217 221 231 234 224
286 284 282 282 281 281 281 280 280 279 278 278 278 278 279 279 279 278 277 277 279 280 279 279 279 275 272 272 270 265 259 250 246 243 235 228 228 228 227 223 221 222 223 225 228 231 234 235 230 224 221 220 221 222 224 225 215 201 198 198 192 190 188 184 182 178 174 173 172 173 175 172 169 167 165 169 170 167 176 192 203 210 214 215 224 234 239 242
285 283 281 280 279 279 279 279 278 277 277 277 276 276 277 277 277 277 276 275 274 277 279 279 279 280 278 276 274 271 265 255 249 247 240 230 227 228 228 224 221 221 222 223 226 230 232 232 228 224 222 221 221 223 224 224 216 201 198 199 195 197 194 187 186 185 182 180 179 182 183 176 169 165 163 171 178 180 187 201 210 213 214 215 221 229 233 241
284 282 280 278 277 277 277 277 277 276 275 275 275 275 275 276 276 276 275 273 270 270 275 277 277 278 279 279 276 275 272 263 253 249 244 234 227 226 227 226 223 221 222 222 224 227 228 227 227 225 222 221 221 223 225 224 218 204 198 198 197 199 197 191 191 192 191 188 183 188 190 178 167 164 166 169 174 185 196 207 218 217 214 216 219 226 232 237
282 281 279 277 276 275 274 274 274 275 274 274 274 274 274 274 275 275 275 274 271 269 272 274 275 274 276 278 277 276 275 269 257 250 247 239 230 225 224 225 224 222 222 221 222 224 224 223 225 225 223 221 221 222 224 224 221 207 193 196 200 200 200 196 195 197 199 192 186 195 195 183 176 173 174 178 182 188 188 196 227 230 217 217 221 229 236 239
280 280 279 276 274 274 273 273 272 272 273 273 273 273 273 273 273 274 275 274 274 274 273 272 273 274 273 274 276 276 274 271 262 254 249 243 234 228 225 223 223 222 221 222 223 223 221 219 224 226 223 223 223 223 223 223 222 207 190 198 202 203 205 200 198 201 202 196 194 201 199 192 192 187 187 192 194 192 181 184 225 236 218 215 217 229 245 250
278 278 278 276 274 272 272 272 270 270 270 271 272 272 272 272 271 272 273 273 275 275 273 271 272 273 272 271 272 273 273 271 264 256 250 245 237 229 225 223 222 222 222 222 223 223 221 218 223 227 225 225 226 224 223 225 223 208 197 204 205 206 208 203 202 206 207 207 205 204 204 205 203 197 199 202 201 195 182 176 183 194 214 224 223 228 246 261
275 276 277 276 274 271 270 270 269 269 269 269 270 271 272 271 270 270 269 270 272 273 272 271 270 270 270 270 269 270 272 272 266 259 252 247 242 234 227 224 222 222 222 223 222 220 220 218 220 226 225 225 227 223 221 224 224 214 207 209 208 209 210 207 207 209 214 216 211 206 211 218 212 200 204 211 208 199 182 169 161 172 210 234 236 237 245 257
273 273 274 275 274 272 270 269 268 269 268 267 267 268 269 268 268 268 267 267 270 271 270 268 267 268 268 268 268 267 269 271 268 262 255 249 245 239 229 223 221 220 221 223 220 217 218 217 218 223 224 222 221 220 219 222 223 220 216 214 213 214 214 214 213 214 220 220 211 208 214 227 224 207 209 219 214 201 187 178 177 183 193 198 221 250 253 245
272 271 271 272 272 271 269 268 267 268 267 267 266 266 266 266 266 265 265 267 269 269 268 266 265 266 266 266 266 265 266 268 268 263 257 251 246 241 234 226 221 220 220 221 219 215 215 216 217 221 222 219 217 216 216 219 221 221 219 216 216 218 217 219 220 220 226 222 213 214 221 232 235 215 211 219 212 203 199 194 192 185 175 176 204 238 253 242
272 270 270 269 270 269 268 268 267 266 266 266 265 264 264 264 262 263 266 269 270 268 266 264 263 263 264 264 264 264 264 265 267 264 258 253 247 243 239 232 225 223 222 222 220 217 215 215 216 219 221 218 215 214 214 217 219 220 221 216 216 220 219 220 223 224 229 227 220 224 231 236 238 210 198 207 206 205 207 211 205 187 170 174 191 218 237 238
272 270 269 268 267 267 266 266 266 265 264 264 264 263 263 262 260 262 266 268 269 268 265 263 262 262 263 263 263 262 262 263 265 263 258 254 249 243 239 235 228 225 224 223 222 220 217 215 215 217 220 218 216 214 214 215 218 220 222 218 216 219 220 221 223 225 230 231 227 231 237 237 231 195 189 199 203 205 210 218 209 192 184 184 191 211 224 225
272 270 269 268 266 264 263 263 263 264 264 263 263 262 261 261 261 263 265 267 267 265 263 262 261 261 261 263 263 262 260 260 261 261 258 255 251 244 238 235 231 227 224 222 221 219 218 216 214 215 219 219 217 216 215 216 220 223 225 223 221 222 223 224 226 227 231 234 233 235 239 233 204 177 186 194 199 203 209 215 212 212 212 202 204 217 216 209
271 270 268 267 265 263 261 261 261 261 262 261 261 260 260 262 264 264 264 265 264 261 260 260 260 260 260 260 262 261 260 260 259 259 258 256 252 245 239 236 233 229 226 224 222 219 218 217 214 216 220 221 219 217 215 215 218 222 226 227 225 225 227 229 231 231 233 237 237 238 241 229 194 179 186 192 198 205 212 213 216 224 225 221 226 232 220 205
269 269 267 266 264 262 260 259 259 258 259 259 259 258 260 262 264 263 262 261 261 260 259 259 258 258 258 258 259 260 260 259 258 256 255 254 252 246 240 237 234 231 228 226 224 222 220 217 214 216 221 222 222 219 216 215 217 219 223 226 227 227 227 230 233 233 234 237 238 240 242 237 227 213 198 197 204 212 221 223 224 230 233 237 246 252 239 220
268 267 266 265 264 262 260 258 257 256 256 257 257 257 259 259 259 260 260 260 260 259 257 256 256 256 255 255 256 258 258 258 257 254 252 253 253 248 241 237 235 232 228 227 226 224 223 220 216 215 219 222 222 221 218 216 218 220 223 226 227 226 226 227 231 232 232 236 239 240 240 241 241 232 213 212 220 223 231 236 237 240 245 248 254 258 249 233
267 266 265 264 263 261 259 257 255 254 254 255 256 256 256 256 257 259 259 259 258 257 255 254 254 253 252 252 252 254 256 257 256 253 251 251 253 250 242 236 235 233 228 226 226 224 223 222 218 215 218 222 222 222 220 218 217 220 223 225 225 226 226 226 228 231 232 234 239 241 241 240 241 238 228 228 231 229 233 240 239 241 250 254 256 261 253 242
266 265 264 263 262 261 259 256 254 252 252 254 255 255 254 254 255 256 257 257 256 255 253 252 251 250 249 249 249 249 252 255 255 254 252 250 251 250 241 235 235 233 229 226 226 225 224 223 220 216 217 221 222 222 222 220 218 219 222 223 224 226 229 229 231 234 235 236 239 241 243 242 240 240 238 237 238 236 234 238 240 244 254 256 260 265 259 253
264 264 263 262 261 260 258 256 254 251 251 252 253 253 252 251 251 252 253 253 253 253 252 250 249 248 247 247 247 246 247 251 254 254 253 250 249 247 240 235 235 233 230 227 227 226 225 224 223 219 218 220 221 221 222 222 221 220 221 222 222 224 228 230 231 234 236 238 241 243 246 247 244 243 243 241 244 246 245 244 243 247 258 264 267 263 259 261
264 263 262 261 260 258 256 255 253 251 251 250 250 249 249 248 248 249 251 251 251 251 250 249 247 246 245 244 244 242 243 247 251 253 254 251 247 243 239 235 233 232 231 230 228 227 226 226 224 221 220 220 221 222 223 224 224 223 223 224 224 224 227 229 231 232 234 236 240 243 246 249 248 244 242 241 245 250 255 253 244 239 251 266 269 258 258 264
263 263 262 261 259 257 255 253 251 251 250 249 247 247 246 246 245 246 248 249 249 249 249 248 246 245 244 243 242 241 241 244 247 251 253 251 245 238 235 234 232 232 233 233 233 230 227 227 226 223 221 221 221 223 225 225 226 226 226 226 226 226 227 230 232 233 235 236 238 241 245 248 249 245 242 240 242 248 254 255 243 231 240 252 260 258 259 265
262 263 262 261 259 256 254 251 249 249 248 247 245 244 244 243 243 244 246 247 247 248 248 247 246 245 243 241 240 239 240 241 243 247 250 250 245 236 232 232 232 233 234 235 235 233 229 228 228 226 223 221 221 223 225 226 226 226 227 227 226 226 226 229 233 236 238 238 239 241 244 246 248 248 247 245 244 246 250 252 242 230 235 242 250 257 257 256
263 264 263 261 259 256 253 250 248 247 246 245 244 243 242 242 241 242 244 245 246 246 246 246 245 244 242 239 236 236 237 239 239 242 246 247 244 237 231 231 232 233 234 234 233 233 231 231 230 228 224 221 219 220 222 225 226 226 227 228 228 227 227 228 231 234 237 239 239 241 244 245 246 248 249 250 253 254 254 255 247 232 231 238 245 252 251 246
264 265 264 263 260 257 253 250 248 245 244 243 243 242 241 240 240 241 243 244 244 244 244 244 243 242 240 237 234 232 234 236 236 236 241 242 240 237 232 230 232 232 234 234 232 232 233 233 231 229 227 224 222 221 222 224 226 226 226 227 228 229 229 228 229 231 234 237 238 239 242 244 245 246 246 248 255 258 259 262 256 240 234 240 243 244 245 246
262 263 263 262 261 258 254 250 247 245 243 241 240 240 240 239 238 239 241 242 242 242 242 242 241 240 238 235 233 231 231 234 234 233 237 239 237 234 231 229 230 232 233 234 235 234 235 235 234 233 232 230 227 225 224 224 227 229 228 227 226 227 229 230 230 231 233 236 237 239 241 243 243 244 244 245 248 251 253 259 260 249 242 247 247 241 241 247
258 258 258 258 258 256 253 249 245 243 242 240 239 238 238 238 238 238 239 240 240 240 240 240 239 238 236 233 231 229 228 231 232 231 231 234 235 233 230 228 229 231 232 234 236 237 236 237 237 237 237 235 231 227 224 223 226 230 232 231 229 228 229 229 230 230 231 234 237 239 240 241 241 241 241 243 246 248 250 255 260 254 247 252 250 240 238 243
255 254 252 250 250 251 250 246 243 240 239 239 237 237 236 237 237 237 237 238 238 238 238 238 236 235 234 231 228 226 225 226 228 227 225 228 229 229 229 229 229 230 232 234 236 238 237 238 238 238 239 238 233 228 224 223 224 226 230 233 232 230 230 230 230 230 230 233 237 240 240 240 240 240 240 243 247 250 249 250 255 253 248 248 241 231 233 239
254 252 249 246 243 243 244 243 240 237 236 235 235 234 235 235 235 236 236 236 236 236 236 235 234 232 231 229 227 225 224 224 226 225 223 223 223 224 227 228 229 230 232 235 237 239 239 238 238 238 238 238 234 228 224 222 221 221 223 228 230 231 232 232 232 231 232 234 237 240 241 240 240 240 241 243 247 251 248 241 241 246 246 239 231 229 234 240
253 250 247 244 240 237 238 238 237 234 232 232 232 232 232 233 233 233 234 234 234 234 233 233 231 230 228 227 226 225 223 224 225 225 222 221 220 220 222 224 226 228 231 234 236 238 239 238 237 236 237 236 233 226 221 219 218 218 219 221 225 228 230 231 232 232 233 234 237 239 240 239 237 237 239 241 244 248 246 237 231 235 238 233 229 232 238 242
253 250 247 244 239 236 235 235 235 233 231 229 229 229 230 230 231 231 231 231 231 230 230 230 229 228 227 226 225 224 222 222 223 223 222 220 219 218 218 220 224 227 229 233 235 236 237 238 236 235 234 233 229 223 219 217 216 216 216 217 220 223 226 228 229 231 232 234 236 238 239 238 235 234 235 237 239 242 241 233 226 226 227 226 228 234 240 246
252 251 249 245 240 238 238 236 234 233 231 229 228 227 227 228 228 228 228 228 227 227 228 227 226 226 225 224 223 223 221 221 221 221 221 220 219 218 217 217 220 224 227 232 235 235 235 235 235 233 232 230 226 221 219 218 217 217 217 217 219 221 223 226 227 228 230 232 234 235 237 237 235 233 233 235 238 238 234 227 224 223 224 226 231 238 244 249